Location: Observatoire
(46.1952°N, 5.3391°E)
Time: 01:42:01
(UTC+01:00)

Altair - Pass Details

Date: 18 February 2026
Orbit: 1502 x 1682 km, 47.2° (Epoch: 9 March)

Event Time Altitude Azimuth Distance (km) Brightness Sun altitude
Rises 12:13:59 0° 292° (WNW) 4,747 9.8 31.6°
Reaches altitude 10° 12:17:27 10° 282° (WNW) 3,787 9.4 31.7°
Maximum altitude 12:25:29 31° 226° (SW) 2,551 9.5 32.0°
Drops below altitude 10° 12:33:44 10° 169° (S) 3,889 11.1 32.1°
Sets 12:37:23 0° 159° (SSE) 4,892 11.2 32.2°
